Terminal Aerodrome Forecast
Issued by NWS Boston, MA

Home | Current Version | Previous Version | Text Only | Print | Product List | Glossary On
Versions: 1 2 3 4 5 6 7 8 9 10 11 12 13 14 15 16 17 18 19 20 21 22 23 24 25 26 27 28 29 30 31 32 33 34 35 36 37 38 39 40 41 42 43 44
000
FTUS41 KBOX 241731
TAFPVD
TAF
KPVD 241731Z 2418/2518 02021G30KT 6SM -RA BR OVC010
     FM250000 01012KT 3SM -RA BR OVC010
     FM250800 33011G18KT P6SM VCSH OVC020
     FM251100 31010G17KT P6SM BKN040=

USA.gov is the U.S. government's official web portal to all federal, state and local government web resources and services.